Weather reports worldwide

Advertisment
Hereford/Credenhill, United Kingdom (3522): temperature & dewpoint: 20.05.2019 01:00:00 - 26.05.2019 01:00:00 (BST)Hereford/Credenhill, United Kingdom (3522): temperature -20cm & temperature -100cm: 20.05.2019 01:00:00 - 26.05.2019 01:00:00 (BST)Hereford/Credenhill, United Kingdom (3522): wind speed: 20.05.2019 01:00:00 - 26.05.2019 01:00:00 (BST)Hereford/Credenhill, United Kingdom (3522): wind direction: 20.05.2019 01:00:00 - 26.05.2019 01:00:00 (BST)Hereford/Credenhill, United Kingdom (3522): reduced air pressure: 20.05.2019 01:00:00 - 26.05.2019 01:00:00 (BST)Hereford/Credenhill, United Kingdom (3522): visibility: 20.05.2019 01:00:00 - 26.05.2019 01:00:00 (BST)Hereford/Credenhill, United Kingdom (3522): precipitation: 20.05.2019 01:00:00 - 26.05.2019 01:00:00 (BST)
Date & Time tt [°C] td [°C] tt -20cm [°C] tt -100cm [°C] ff [km/h] ff [kn] dd ppp [hPa] vv [km] rr [mm]
26.05.2019 01:00:00 - - - - - - - - - -
26.05.2019 00:00:00 13,4 10,9 - - 2 1 WNW 1017,9 27 0,0
25.05.2019 23:00:00 15,0 11,7 - - 5 3 W 1018,3 35 0,0
25.05.2019 22:00:00 15,6 11,4 - - 4 2 WSW 1018,3 28 0,0
25.05.2019 21:00:00 16,5 11,2 - - 8 4 WSW 1018,2 30 0,0
25.05.2019 20:00:00 17,5 12,6 - - 9 5 WSW 1018,1 26 0,0
25.05.2019 19:00:00 18,3 12,2 - - 16 9 W 1018,2 28 0,0
25.05.2019 18:00:00 18,4 12,4 - - 21 11 W 1018,3 28 0,0
25.05.2019 17:00:00 18,6 12,0 - - 18 10 W 1018,5 28 0,0
25.05.2019 16:00:00 19,9 12,1 - - 18 10 W 1018,4 35 0,0
25.05.2019 15:00:00 20,7 11,3 - - 15 8 W 1018,4 40 0,0
25.05.2019 14:00:00 21,2 12,3 - - 13 7 W 1018,7 35 0,0
25.05.2019 13:00:00 21,3 12,3 - - 9 5 WSW 1019,0 40 0,0
25.05.2019 12:00:00 21,1 13,3 - - 13 7 W 1019,3 45 0,0
25.05.2019 11:00:00 19,1 11,4 - - 11 6 W 1019,8 35 0,0
25.05.2019 10:00:00 17,9 11,5 12,4 10,5 11 6 WNW 1020,0 35 0,0
25.05.2019 09:00:00 16,2 11,9 - - 5 3 W 1020,2 30 0,0
25.05.2019 08:00:00 14,1 10,6 - - 5 3 WNW 1020,2 27 0,0
25.05.2019 07:00:00 11,6 9,3 - - 8 4 WNW 1020,1 24 0,0
25.05.2019 06:00:00 11,1 9,0 - - 9 5 WNW 1020,1 30 0,0
25.05.2019 05:00:00 11,1 9,0 - - 11 6 WNW 1019,7 30 0,0
25.05.2019 04:00:00 11,2 8,9 - - 8 4 W 1019,6 28 0,0
25.05.2019 03:00:00 11,9 9,6 - - 8 4 WNW 1019,8 26 0,0
25.05.2019 02:00:00 12,2 9,7 - - 8 4 W 1019,9 22 0,0
25.05.2019 01:00:00 12,3 9,8 - - 9 5 WNW 1019,8 23 0,0
25.05.2019 00:00:00 12,7 9,7 - - 4 2 NW 1019,9 21 0,0
24.05.2019 23:00:00 13,6 10,3 - - 4 2 W 1019,9 20 0,0
24.05.2019 22:00:00 14,5 10,4 - - 9 5 WNW 1019,6 28 0,0
24.05.2019 21:00:00 15,7 10,5 - - 9 5 W 1019,1 29 0,0
24.05.2019 20:00:00 16,6 10,3 - - 9 5 WNW 1018,9 40 0,0
24.05.2019 19:00:00 17,9 10,4 - - 15 8 WNW 1018,5 45 0,0
24.05.2019 18:00:00 18,3 11,0 - - 13 7 WNW 1018,4 29 0,0
24.05.2019 17:00:00 18,3 10,9 - - 13 7 WNW 1018,5 30 0,0
24.05.2019 16:00:00 18,4 11,7 - - 13 7 W 1018,7 29 0,0
24.05.2019 15:00:00 18,7 11,8 - - 11 6 W 1018,8 30 0,0
24.05.2019 14:00:00 18,8 10,9 - - 16 9 WNW 1018,7 28 0,0
24.05.2019 13:00:00 19,0 12,0 - - 13 7 W 1019,0 27 0,0
24.05.2019 12:00:00 18,7 11,4 - - 16 9 W 1018,7 25 0,0
24.05.2019 11:00:00 18,0 10,4 - - 5 3 WNW 1018,8 26 0,0
24.05.2019 10:00:00 16,6 11,1 12,0 10,5 8 4 W 1019,0 19 0,0
24.05.2019 09:00:00 15,2 10,9 - - 9 5 WNW 1019,1 20 0,0
24.05.2019 08:00:00 13,0 10,4 - - 8 4 WNW 1018,9 19 0,0
24.05.2019 07:00:00 9,4 8,4 - - 5 3 SSW 1018,7 13 0,0
24.05.2019 06:00:00 7,9 7,1 - - 8 4 W 1018,5 11 0,0
24.05.2019 05:00:00 8,1 7,2 - - 8 4 WNW 1018,5 13 0,0
24.05.2019 04:00:00 8,3 7,2 - - 9 5 W 1018,4 14 0,0
24.05.2019 03:00:00 8,7 7,4 - - 8 4 W 1018,1 15 0,0
24.05.2019 02:00:00 9,4 7,6 - - 11 6 WNW 1017,7 22 0,0
24.05.2019 01:00:00 9,1 7,3 - - 9 5 WNW 1017,7 24 0,0
24.05.2019 00:00:00 9,8 7,3 - - 5 3 WNW 1017,8 29 0,0
23.05.2019 23:00:00 10,7 7,4 - - 9 5 WNW 1017,8 30 0,0
23.05.2019 22:00:00 12,1 7,1 - - 9 5 W 1017,5 35 0,0
23.05.2019 21:00:00 14,5 7,6 - - 16 9 WNW 1016,7 45 0,0
23.05.2019 20:00:00 15,5 6,5 - - 15 8 WNW 1016,1 40 0,0
23.05.2019 19:00:00 19,1 7,4 - - 15 8 W 1015,4 50 0,0
23.05.2019 18:00:00 19,5 7,2 - - 13 7 WNW 1015,4 50 0,0
23.05.2019 17:00:00 19,7 7,1 - - 8 4 W 1015,3 30 0,0
23.05.2019 16:00:00 20,8 7,9 - - 9 5 W 1015,4 40 0,0
23.05.2019 15:00:00 20,3 8,1 - - 5 3 W 1015,6 45 0,0
23.05.2019 14:00:00 19,7 9,1 - - 4 2 W 1016,0 40 0,0
23.05.2019 13:00:00 19,0 9,1 - - 4 2 SW 1016,1 26 0,0
23.05.2019 12:00:00 17,8 7,9 - - 8 4 WNW 1016,7 40 0,0
23.05.2019 11:00:00 16,7 6,5 - - 4 2 SSW 1017,2 35 0,0
23.05.2019 10:00:00 15,9 6,8 11,7 10,4 2 1 NW 1017,3 50 0,0
23.05.2019 09:00:00 13,0 7,4 - - 4 2 W 1017,6 35 0,0
23.05.2019 08:00:00 10,3 7,4 - - 2 1 ESE 1018,0 50 0,0
23.05.2019 07:00:00 7,1 6,3 - - 2 1 SSW 1018,0 24 0,0
23.05.2019 06:00:00 5,6 5,1 - - 2 1 WSW 1017,9 28 0,0
23.05.2019 05:00:00 5,5 5,0 - - 4 2 NW 1017,9 40 0,0
23.05.2019 04:00:00 5,7 5,1 - - 5 3 W 1018,3 23 0,0
23.05.2019 03:00:00 5,7 4,8 - - 2 1 SSW 1018,3 29 0,0
23.05.2019 02:00:00 6,2 4,8 - - 2 1 E 1018,7 29 0,0
23.05.2019 01:00:00 7,3 5,5 - - 0 0 N 1018,9 30 0,0
23.05.2019 00:00:00 8,8 5,3 - - 2 1 W 1018,9 45 0,0
22.05.2019 23:00:00 10,4 5,6 - - 5 3 WNW 1018,9 30 0,0
22.05.2019 22:00:00 12,0 6,5 - - 5 3 WSW 1019,0 40 0,0
22.05.2019 21:00:00 14,5 5,6 - - 9 5 W 1018,5 45 0,0
22.05.2019 20:00:00 17,4 4,1 - - 13 7 W 1018,1 40 0,0
22.05.2019 19:00:00 18,8 5,6 - - 11 6 W 1018,1 45 0,0
22.05.2019 18:00:00 19,4 5,5 - - 13 7 W 1018,2 40 0,0
22.05.2019 17:00:00 20,4 7,8 - - 13 7 W 1018,3 45 0,0
22.05.2019 16:00:00 19,3 6,0 - - 4 2 WNW 1018,7 50 0,0
22.05.2019 15:00:00 19,6 7,0 - - 5 3 WSW 1019,1 45 0,0
22.05.2019 14:00:00 19,2 7,0 - - 5 3 NE 1019,4 50 0,0
22.05.2019 13:00:00 17,8 5,7 - - 9 5 W 1019,8 55 0,0
22.05.2019 12:00:00 18,1 5,5 - - 11 6 W 1020,0 55 0,0
22.05.2019 11:00:00 17,0 6,1 - - 8 4 W 1020,4 60 0,0
22.05.2019 10:00:00 16,2 7,9 11,7 10,4 4 2 SSW 1020,7 40 0,0
22.05.2019 09:00:00 13,2 7,4 - - 4 2 S 1020,9 30 0,0
22.05.2019 08:00:00 10,0 8,7 - - 4 2 WSW 1021,2 23 0,0
22.05.2019 07:00:00 6,9 6,6 - - 4 2 SSW 1021,0 15 0,0
22.05.2019 06:00:00 6,4 6,0 - - 4 2 SW 1021,0 16 0,0
22.05.2019 05:00:00 5,9 5,4 - - 2 1 WSW 1020,9 15 0,0
22.05.2019 04:00:00 5,8 5,0 - - 4 2 SSW 1021,3 14 0,0
22.05.2019 03:00:00 6,5 5,4 - - 4 2 SW 1021,4 22 0,0
22.05.2019 02:00:00 7,5 6,1 - - 4 2 SW 1021,5 45 0,0
22.05.2019 01:00:00 7,5 5,6 - - 5 3 W 1021,4 30 0,0
22.05.2019 00:00:00 9,2 6,2 - - 5 3 WNW 1021,6 45 0,0
21.05.2019 23:00:00 8,2 4,9 - - 2 1 W 1021,5 60 0,0
21.05.2019 22:00:00 12,6 5,2 - - 8 4 NNE 1021,1 35 0,0
21.05.2019 21:00:00 14,7 6,2 - - 11 6 N 1020,6 40 0,0
21.05.2019 20:00:00 16,0 7,4 - - 9 5 N 1020,1 30 0,0
21.05.2019 19:00:00 17,3 7,1 - - 8 4 N 1019,7 50 0,0
21.05.2019 18:00:00 18,4 6,4 - - 13 7 W 1019,6 55 0,0
21.05.2019 17:00:00 19,6 6,4 - - 11 6 NNE 1019,4 60 0,0
21.05.2019 16:00:00 18,4 4,2 - - 9 5 NNW 1019,6 45 0,0
21.05.2019 15:00:00 19,1 6,7 - - 8 4 NNW 1019,8 60 0,0
21.05.2019 14:00:00 18,7 6,8 - - 11 6 WNW 1019,8 - 0,0
21.05.2019 13:00:00 17,6 5,7 - - 5 3 NNW 1020,0 - 0,0
21.05.2019 12:00:00 16,8 7,8 - - 9 5 W 1020,2 - 0,0
21.05.2019 11:00:00 15,5 8,6 - - 5 3 NW 1020,2 - 0,0
21.05.2019 10:00:00 14,9 8,4 11,7 10,2 8 4 NW 1020,2 - 0,0
21.05.2019 09:00:00 12,8 8,6 - - 8 4 W 1020,1 - 0,0
21.05.2019 08:00:00 10,3 7,8 - - 8 4 W 1019,9 - 0,0
21.05.2019 07:00:00 7,7 7,7 - - 8 4 W 1019,7 - 0,0
21.05.2019 06:00:00 4,7 4,5 - - 2 1 S 1019,5 - 0,0
21.05.2019 05:00:00 4,6 4,3 - - 5 3 WSW 1019,3 - 0,0
21.05.2019 04:00:00 4,8 4,4 - - 2 1 SSW 1019,0 - 0,0
21.05.2019 03:00:00 5,9 5,4 - - 5 3 W 1018,8 - 0,0
21.05.2019 02:00:00 6,0 5,5 - - 5 3 WNW 1018,4 - 0,0
21.05.2019 01:00:00 6,3 5,6 - - 2 1 W 1018,3 30 0,0
21.05.2019 00:00:00 7,4 6,6 - - 4 2 WNW 1018,0 - 0,0
20.05.2019 23:00:00 9,0 7,9 - - 4 2 WNW 1017,6 - 0,0
20.05.2019 22:00:00 9,9 7,8 - - 0 0 N 1017,3 - 0,0
20.05.2019 21:00:00 12,6 8,8 - - 2 1 NW 1016,5 - 0,0
20.05.2019 20:00:00 14,6 8,6 - - 11 6 N 1015,8 - 0,0
20.05.2019 19:00:00 13,6 8,6 - - 15 8 NNW 1015,4 - 0,0
20.05.2019 18:00:00 15,4 8,7 - - 16 9 NNW 1014,8 - 0,0
20.05.2019 17:00:00 18,7 8,7 - - 4 2 SSW 1014,2 - 0,0
20.05.2019 16:00:00 17,4 8,7 - - 9 5 E 1014,2 - 0,0
20.05.2019 15:00:00 18,5 8,6 - - 8 4 N 1014,2 - 0,0
20.05.2019 14:00:00 17,1 7,5 - - 5 3 ENE 1014,4 - 0,0
20.05.2019 13:00:00 15,8 8,7 - - 8 4 N 1014,4 - 0,0
20.05.2019 12:00:00 16,8 8,9 - - 5 3 S 1014,3 - 0,0
20.05.2019 11:00:00 14,8 7,7 - - 8 4 NNW 1014,4 - 0,0
20.05.2019 10:00:00 14,3 8,4 11,7 10,2 11 6 NW 1014,5 - 0,0
20.05.2019 09:00:00 13,0 8,5 - - 9 5 NW 1014,5 - 0,0
20.05.2019 08:00:00 11,4 8,5 - - 9 5 WNW 1014,3 - 0,0
20.05.2019 07:00:00 9,3 8,0 - - 9 5 W 1014,0 - 0,0
20.05.2019 06:00:00 6,5 5,9 - - 9 5 W 1013,6 - 0,0
20.05.2019 05:00:00 7,1 6,2 - - 4 2 SSW 1013,5 - 0,0
20.05.2019 04:00:00 7,4 6,3 - - 4 2 W 1013,4 - 0,0
20.05.2019 03:00:00 8,9 7,2 - - 4 2 WSW 1013,3 - 0,0
20.05.2019 02:00:00 9,3 7,2 - - 2 1 WSW 1013,3 - 0,0
20.05.2019 01:00:00 11,3 7,7 - - 5 3 NNW 1013,2 - 0,0

tt = temperature
td = dewpoint
tt -20cm = temperature -20cm
tt -100cm = temperature -100cm
ff = wind speed
dd = wind direction
ppp = reduced air pressure
vv = visibility
rr = precipitation

Next stations